SES-11 (ECHOSTAR 105)

Last updated on Tue Sep 16 2025 00:02:49 GMT+0000 (Coordinated Universal Time)

1 42967U 17063A 25258.56377586 -.00000106 00000+0 00000+0 0 9990 2 42967 0.0408 307.3637 0002909 239.8989 265.5241 1.00271816 28965
UTC large
Height (km)
Speed (km/s)
/
Latitude / Longitude
Inclination (degrees)
Orbital Period (minutes)
Azimuth
Elevation
Range (km)
Doppler Factor

Next 0 passes for location: London (51.5072 / 0.1276)

Sorry there are no passes over London.